This is the latest recevied weather packets stored in our database for station/object DK8HC-WX. If no packets are shown the sender has not sent any weather packets the latest 10 day(s).
| Time | Temp. | Humidity | Pressure | Rain* | Wind** | Luminosity | Snow |
|---|---|---|---|---|---|---|---|
| 1777926711 | 13.33° C | 100% | 1027.1 hPa | - | - | - | - |
| 1777926111 | 13.33° C | 100% | 1026.3 hPa | - | - | - | - |
| 1777925511 | 13.89° C | 100% | 1025.5 hPa | - | - | - | - |
| 1777924911 | 13.89° C | 100% | 1024.6 hPa | - | - | - | - |
| 1777924310 | 13.33° C | 100% | 1023.5 hPa | - | - | - | - |
| 1777923711 | 13.89° C | 100% | 1022.8 hPa | - | - | - | - |
| 1777923111 | 13.89° C | 100% | 1021.1 hPa | - | - | - | - |
| 1777922510 | 13.89° C | 100% | 1019.9 hPa | - | - | - | - |
| 1777921910 | 13.89° C | 100% | 1018.7 hPa | - | - | - | - |
| 1777921310 | 13.89° C | 100% | 1017.4 hPa | - | - | - | - |
| 1777920710 | 13.89° C | 100% | 1016.2 hPa | - | - | - | - |
| 1777920110 | 13.89° C | 100% | 1015 hPa | - | - | - | - |
| 1777919510 | 15° C | 100% | 1014.5 hPa | - | - | - | - |
| 1777918910 | 15° C | 100% | 1014.2 hPa | - | - | - | - |
| 1777918310 | 15° C | 100% | 1013.8 hPa | - | - | - | - |
| 1777917710 | 15° C | 100% | 1013.6 hPa | - | - | - | - |
| 1777917110 | 16.11° C | 100% | 1013.4 hPa | - | - | - | - |
| 1777916510 | 17.78° C | 100% | 1013.2 hPa | - | - | - | - |
| 1777915910 | 20° C | 100% | 1013.2 hPa | - | - | - | - |
| 1777915310 | 20.56° C | 100% | 1013 hPa | - | - | - | - |
| 1777914710 | 20.56° C | 100% | 1013.1 hPa | - | - | - | - |
| 1777914110 | 21.11° C | 100% | 1013.1 hPa | - | - | - | - |
| 1777913510 | 21.11° C | 100% | 1013.2 hPa | - | - | - | - |
| 1777912910 | 21.67° C | 93% | 1013.3 hPa | - | - | - | - |
| 1777912310 | 22.22° C | 88% | 1013.4 hPa | - | - | - | - |
* Rain since midnight (hover to see other rain measurements)
** Current wind speed in m/s (hover to see current wind gust speed)